• In Latvia
  • List of Countries
  • For 7 days
  • Water Temperature
  • Satellite Maps
  • Weather Map
  • Weather Widgets
  • user-avatar
    Login

    Hourly Weather Lincoln

    Today, 26 September, Tuesday

    Time Temperature Precipitation Wind Pressure Humidity
    00:00 +15°C° 0 mm 2 mps 762 mmHg 92%
    01:00 +14°C° 0 mm 2 mps 761 mmHg 92%
    02:00 +14°C° 0 mm 2 mps 761 mmHg 92%
    03:00 +14°C° 0 mm 1 mps 761 mmHg 92%
    04:00 +14°C° 0 mm 1 mps 761 mmHg 91%
    05:00 +14°C° 0 mm 2 mps 762 mmHg 90%
    06:00 +14°C° 0 mm 2 mps 762 mmHg 89%
    07:00 +15°C° 0 mm 2 mps 762 mmHg 85%
    08:00 +16°C° 0 mm 2 mps 762 mmHg 81%
    09:00 +16°C° 0 mm 2 mps 762 mmHg 77%
    10:00 +17°C° 0 mm 2 mps 762 mmHg 74%
    11:00 +17°C° 0 mm 2 mps 762 mmHg 71%
    12:00 +18°C° 0 mm 2 mps 762 mmHg 68%
    13:00 +18°C° 0 mm 2 mps 762 mmHg 67%
    14:00 +18°C° 0 mm 2 mps 762 mmHg 67%
    15:00 +18°C° 0 mm 2 mps 761 mmHg 67%
    16:00 +18°C° 0 mm 2 mps 761 mmHg 71%
    17:00 +17°C° 0 mm 2 mps 761 mmHg 76%
    18:00 +16°C° 0 mm 2 mps 761 mmHg 80%
    19:00 +14°C° 0 mm 3 mps 762 mmHg 84%
    20:00 +14°C° 0 mm 3 mps 762 mmHg 87%
    21:00 +14°C° 0 mm 3 mps 762 mmHg 90%
    22:00 +13°C° 0 mm 3 mps 762 mmHg 92%
    23:00 +13°C° 0 mm 3 mps 762 mmHg 93%

    Tomorrow, 27 September, Wednesday

    Time Temperature Precipitation Wind Pressure Humidity
    00:00 +13°C° 0 mm 3 mps 762 mmHg 95%
    01:00 +13°C° 0 mm 3 mps 761 mmHg 95%
    02:00 +12°C° 0 mm 3 mps 761 mmHg 95%
    03:00 +12°C° 0 mm 3 mps 761 mmHg 95%
    04:00 +12°C° 0 mm 3 mps 761 mmHg 95%
    05:00 +13°C° 0 mm 2 mps 761 mmHg 95%
    06:00 +13°C° 0 mm 2 mps 760 mmHg 95%
    07:00 +13°C° 0 mm 3 mps 760 mmHg 91%
    08:00 +14°C° 0 mm 3 mps 760 mmHg 87%
    09:00 +15°C° 0 mm 4 mps 760 mmHg 82%
    10:00 +17°C° 0 mm 4 mps 760 mmHg 77%
    11:00 +18°C° 0 mm 4 mps 760 mmHg 71%
    12:00 +19°C° 0 mm 5 mps 759 mmHg 65%
    13:00 +20°C° 0 mm 5 mps 759 mmHg 65%
    14:00 +20°C° 0 mm 5 mps 759 mmHg 64%
    15:00 +20°C° 0 mm 5 mps 758 mmHg 63%
    16:00 +19°C° 0.1 mm 5 mps 758 mmHg 67%
    17:00 +19°C° 0.1 mm 5 mps 758 mmHg 70%
    18:00 +17°C° 0.1 mm 5 mps 758 mmHg 74%
    19:00 +16°C° 0 mm 5 mps 758 mmHg 76%
    20:00 +16°C° 0 mm 5 mps 758 mmHg 77%
    21:00 +16°C° 0 mm 5 mps 758 mmHg 78%
    22:00 +16°C° 0.1 mm 5 mps 758 mmHg 80%
    23:00 +16°C° 0.1 mm 5 mps 757 mmHg 81%

    Day after tomorrow, 28 September, Thursday

    Time Temperature Precipitation Wind Pressure Humidity
    00:00 +15°C° 0.1 mm 5 mps 757 mmHg 83%
    01:00 +15°C° 0.6 mm 5 mps 757 mmHg 85%
    02:00 +15°C° 0.6 mm 4 mps 757 mmHg 86%
    03:00 +15°C° 0.6 mm 4 mps 757 mmHg 88%
    04:00 +15°C° 0.3 mm 4 mps 757 mmHg 89%
    05:00 +15°C° 0.3 mm 4 mps 757 mmHg 90%
    06:00 +15°C° 0.3 mm 4 mps 757 mmHg 91%
    07:00 +15°C° 0.1 mm 4 mps 758 mmHg 90%
    08:00 +16°C° 0.1 mm 3 mps 758 mmHg 89%
    09:00 +17°C° 0.1 mm 3 mps 758 mmHg 87%
    10:00 +17°C° 0 mm 3 mps 758 mmHg 83%
    11:00 +18°C° 0 mm 3 mps 759 mmHg 80%
    12:00 +18°C° 0 mm 3 mps 759 mmHg 76%
    13:00 +19°C° 0 mm 3 mps 759 mmHg 73%
    14:00 +19°C° 0 mm 3 mps 759 mmHg 71%
    15:00 +19°C° 0 mm 3 mps 759 mmHg 69%
    16:00 +18°C° 0 mm 3 mps 759 mmHg 71%
    17:00 +17°C° 0 mm 2 mps 759 mmHg 73%
    18:00 +16°C° 0 mm 2 mps 759 mmHg 74%
    19:00 +15°C° 0 mm 2 mps 759 mmHg 75%
    20:00 +15°C° 0 mm 2 mps 760 mmHg 76%
    21:00 +14°C° 0 mm 2 mps 760 mmHg 77%
    22:00 +14°C° 0 mm 2 mps 760 mmHg 77%
    23:00 +13°C° 0 mm 2 mps 760 mmHg 78%

    29 September, Friday

    Time Temperature Precipitation Wind Pressure Humidity
    00:00 +12°C° 0 mm 3 mps 760 mmHg 78%
    01:00 +12°C° 0 mm 3 mps 760 mmHg 79%
    02:00 +11°C° 0 mm 3 mps 760 mmHg 80%
    03:00 +11°C° 0 mm 3 mps 759 mmHg 80%
    04:00 +11°C° 0 mm 3 mps 759 mmHg 81%
    05:00 +11°C° 0 mm 4 mps 759 mmHg 82%
    06:00 +10°C° 0 mm 4 mps 759 mmHg 83%
    07:00 +12°C° 0 mm 4 mps 759 mmHg 80%
    08:00 +13°C° 0 mm 5 mps 759 mmHg 77%
    09:00 +14°C° 0 mm 6 mps 759 mmHg 74%
    10:00 +15°C° 0.1 mm 6 mps 759 mmHg 73%
    11:00 +16°C° 0.1 mm 6 mps 758 mmHg 72%
    12:00 +17°C° 0.1 mm 6 mps 758 mmHg 72%
    13:00 +17°C° 0.7 mm 5 mps 758 mmHg 74%
    14:00 +17°C° 0.7 mm 5 mps 758 mmHg 76%
    15:00 +17°C° 0.7 mm 5 mps 758 mmHg 78%
    16:00 +17°C° 0.7 mm 4 mps 758 mmHg 82%
    17:00 +15°C° 0.7 mm 4 mps 758 mmHg 86%
    18:00 +16°C° 0.7 mm 3 mps 758 mmHg 89%
    19:00 +14°C° 1.2 mm 3 mps 758 mmHg 89%
    20:00 +14°C° 1.2 mm 3 mps 758 mmHg 88%
    21:00 +14°C° 1.2 mm 3 mps 758 mmHg 88%
    22:00 +13°C° 0.5 mm 3 mps 758 mmHg 87%
    23:00 +13°C° 0.5 mm 3 mps 758 mmHg 86%

    30 September, Saturday

    Time Temperature Precipitation Wind Pressure Humidity
    00:00 +12°C° 0.5 mm 3 mps 758 mmHg 85%
    01:00 +12°C° 0 mm 3 mps 758 mmHg 85%
    02:00 +11°C° 0 mm 3 mps 758 mmHg 84%
    03:00 +12°C° 0 mm 2 mps 758 mmHg 84%
    04:00 +12°C° 0 mm 2 mps 758 mmHg 85%
    05:00 +12°C° 0 mm 2 mps 759 mmHg 85%
    06:00 +10°C° 0 mm 2 mps 759 mmHg 86%
    07:00 +11°C° 0 mm 3 mps 759 mmHg 83%
    08:00 +12°C° 0 mm 3 mps 759 mmHg 80%
    09:00 +13°C° 0 mm 3 mps 759 mmHg 78%
    10:00 +14°C° 0 mm 3 mps 759 mmHg 73%
    11:00 +14°C° 0 mm 4 mps 759 mmHg 68%
    12:00 +15°C° 0 mm 4 mps 759 mmHg 63%
    13:00 +15°C° 0 mm 4 mps 759 mmHg 62%
    14:00 +17°C° 0 mm 4 mps 759 mmHg 60%
    15:00 +17°C° 0 mm 4 mps 759 mmHg 58%
    16:00 +16°C° 0 mm 3 mps 759 mmHg 63%
    17:00 +14°C° 0 mm 3 mps 760 mmHg 68%
    18:00 +13°C° 0 mm 2 mps 760 mmHg 72%
    19:00 +13°C° 0 mm 2 mps 760 mmHg 75%
    20:00 +12°C° 0 mm 2 mps 760 mmHg 77%
    21:00 +12°C° 0 mm 2 mps 760 mmHg 80%
    22:00 +10°C° 0 mm 2 mps 760 mmHg 81%
    23:00 +10°C° 0 mm 2 mps 760 mmHg 82%

    1 October, Sunday

    Time Temperature Precipitation Wind Pressure Humidity
    00:00 +9°C° 0 mm 2 mps 760 mmHg 84%
    01:00 +9°C° 0 mm 2 mps 760 mmHg 84%
    02:00 +9°C° 0 mm 2 mps 760 mmHg 85%
    03:00 +9°C° 0 mm 2 mps 760 mmHg 85%
    04:00 +9°C° 0 mm 2 mps 760 mmHg 85%
    05:00 +9°C° 0 mm 2 mps 759 mmHg 84%
    06:00 +9°C° 0 mm 3 mps 759 mmHg 84%
    07:00 +10°C° 0 mm 3 mps 759 mmHg 81%
    08:00 +10°C° 0 mm 4 mps 759 mmHg 78%
    09:00 +11°C° 0 mm 4 mps 759 mmHg 75%
    10:00 +12°C° 0 mm 5 mps 759 mmHg 73%
    11:00 +12°C° 0 mm 5 mps 758 mmHg 71%
    12:00 +13°C° 0 mm 5 mps 758 mmHg 69%
    13:00 +13°C° 0 mm 6 mps 757 mmHg 69%
    14:00 +14°C° 0 mm 6 mps 757 mmHg 69%
    15:00 +14°C° 0 mm 7 mps 756 mmHg 70%
    16:00 +12°C° 0.1 mm 7 mps 756 mmHg 73%
    17:00 +12°C° 0.1 mm 7 mps 756 mmHg 76%
    18:00 +11°C° 0.1 mm 7 mps 755 mmHg 79%
    19:00 +11°C° 0 mm 8 mps 755 mmHg 80%
    20:00 +11°C° 0 mm 8 mps 755 mmHg 81%
    21:00 +11°C° 0 mm 8 mps 754 mmHg 82%
    22:00 +11°C° 0 mm 9 mps 754 mmHg 82%
    23:00 +12°C° 0 mm 9 mps 753 mmHg 83%
    Show more